Retour au catalogue

STARLINK-30283

ActifCommunicationsVLEO
NORAD 57680·PAYLOAD·🇺🇸 United States

Lancé Aug 22, 2023 depuis Vandenberg Space Force Base

Loading…

Prochains Passages (prochaines 24 heures)

TLE

FraisSource: CelesTrak SupGP

Époque: Sep 14, 2026, 21:59 UTC

1 57680C 23124T   26257.91645833  .00486880  00000+0  61461-2 0  2579
2 57680  53.1607  43.6413 0001102  77.7656  98.8087 15.58697163    15

Suivez STARLINK-30283 en temps réel avec AllMySat

Download on the App Store